Helicity
62 122 146 250 135 123 24 21 -8 -6 -3 10 40 53 62 1 41 100 123 145 177 186 205 199 232 254 243 295 272 209 195 264 318 331 291 317 253 216 232 234 283 253 259 286
0 15 95 259 272 146 104 50 27 -5 18 6 0 31 43 47 70 68 61 52 56 72 92 121 148 179 184 217 231 111 124 175 177 205 242 260 289 250 241 215 199 233 311 302
-18 -6 23 200 229 188 166 121 59 44 -7 4 -19 -7 28 29 51 67 71 43 33 31 39 50 70 68 75 80 68 90 89 85 106 114 148 237 259 226 255 249 218 132 175 190
19 12 36 21 -8 30 89 97 56 20 6 1 -6 -17 -11 8 14 25 24 28 46 56 58 55 41 62 52 88 100 87 72 65 85 82 78 85 104 159 191 205 193 199 214 280
38 53 56 68 21 2 44 55 73 45 43 56 68 44 24 27 33 30 21 17 21 22 25 14 29 34 26 44 58 81 114 80 70 52 58 63 71 78 77 77 125 149 145 217
58 65 50 68 77 33 49 42 59 42 14 -2 1 11 28 25 25 6 4 4 9 18 7 21 38 15 16 47 56 92 97 64 36 33 45 49 46 42 26 16 30 40 73 87
139 87 66 74 80 35 15 29 29 23 24 0 17 1 3 6 0 -8 -13 2 -5 -2 9 26 30 22 40 55 51 28 25 24 40 36 25 35 34 45 38 41 47 50 42 64
61 82 77 92 56 33 45 32 14 10 9 15 3 6 5 -3 -5 1 5 0 3 -2 17 21 21 5 16 29 3 -2 5 27 27 19 9 15 27 30 47 54 61 73 79 83
48 55 66 94 89 69 25 26 11 12 4 9 12 8 -1 -2 5 10 15 3 -3 11 13 24 31 29 33 28 12 11 16 13 15 9 1 -3 9 29 20 21 18 19 19 39
2 15 26 52 65 51 39 39 30 22 15 16 21 8 8 3 4 5 3 4 -1 7 20 22 17 15 7 12 4 11 17 16 4 4 1 2 -16 -22 -15 -3 -3 7 20 22
32 31 46 40 35 34 40 41 48 37 23 14 19 15 13 15 20 17 15 14 15 18 19 21 17 22 18 13 17 8 8 4 1 -12 -9 -22 -29 -21 -23 -16 -10 -26 -18 -3
10 36 36 28 23 29 40 35 21 22 31 38 33 30 28 29 24 21 23 19 25 26 22 18 13 13 12 4 2 5 1 -8 -13 -15 -13 -12 -19 -41 15 40 87 119 112 44
37 63 49 65 40 36 39 28 29 39 36 41 45 42 43 41 35 35 33 36 36 29 18 13 16 20 20 11 8 11 7 11 9 16 11 10 7 14 26 17 42 105 159 158
81 97 86 36 26 30 47 47 52 51 50 47 44 36 36 35 33 33 29 16 14 11 17 16 21 34 35 30 32 37 31 40 28 25 19 18 19 25 31 50 58 59 93 122
64 47 46 68 81 64 52 41 38 38 41 44 35 34 32 30 28 27 19 19 27 30 31 33 38 45 43 39 38 49 54 55 47 41 36 30 34 39 40 50 55 60 66 91
60 60 59 61 64 50 43 33 30 28 35 37 31 31 35 37 42 33 27 32 33 39 41 38 43 37 34 44 54 62 58 68 63 64 67 66 63 68 73 70 64 60 61 61
91 44 47 41 45 39 30 29 22 32 36 31 35 35 37 46 48 45 49 46 47 45 46 49 39 42 51 66 70 72 74 80 81 80 87 79 75 79 71 65 55 45 30 23
80 54 32 42 54 54 45 33 28 34 36 42 42 47 56 50 54 55 50 41 48 60 62 56 50 62 69 75 81 83 86 85 87 94 89 96 87 78 67 69 60 55 40 30
73 57 47 46 54 62 51 45 42 51 62 68 67 59 62 63 58 59 51 57 63 66 71 59 69 83 92 90 96 96 101 106 108 109 102 98 96 86 78 72 65 55 45 40
79 67 68 74 81 77 68 58 80 94 93 88 86 77 68 61 60 60 63 58 57 66 61 57 73 90 87 99 103 108 110 114 116 110 116 105 98 87 77 74 67 60 49 41
64 57 71 88 99 92 81 83 107 110 91 79 76 74 71 70 63 74 75 73 86 69 61 57 87 108 110 109 111 115 111 110 123 111 99 90 81 78 72 69 65 60 54 47
59 40 59 79 76 88 85 98 109 119 98 82 78 91 83 77 89 75 55 73 100 84 85 89 100 123 117 110 115 113 109 110 97 87 82 79 73 67 63 56 55 53 49 43
67 59 65 52 66 92 103 93 94 103 98 84 92 93 85 95 106 114 119 118 104 106 102 99 116 111 107 107 110 108 111 97 81 70 67 63 61 59 56 48 45 45 44 41
68 51 58 86 125 126 102 85 97 96 94 96 91 105 110 116 112 116 106 131 122 125 115 106 117 108 111 116 115 115 106 90 81 78 74 71 67 64 54 48 40 36 38 37
64 90 109 125 111 95 116 127 122 108 103 99 105 107 102 108 122 134 150 159 148 144 124 130 121 118 119 117 112 119 111 98 90 88 87 86 84 78 71 62 51 41 39 37
82 85 94 99 109 120 126 135 119 118 126 131 132 127 127 122 116 125 133 127 134 140 130 138 142 136 128 120 122 114 111 106 101 101 100 92 85 80 74 72 68 61 53 48
121 130 140 138 133 130 138 140 141 136 131 142 153 155 142 140 143 143 137 129 134 132 140 145 145 144 144 131 121 107 103 106 109 112 110 103 95 88 83 79 75 71 65 57
Wind_Speed
41 46 41 31 25 24 38 36 34 38 36 23 14 13 14 50 46 45 42 46 46 46 41 44 35 38 40 44 48 49 50 53 55 55 52 53 53 54 52 51 51 51 52 53
37 36 30 30 23 19 26 18 5 47 25 40 39 25 9 14 7 34 45 45 42 41 42 43 45 41 47 49 50 52 55 57 58 57 55 54 54 54 52 52 52 51 52 53
38 30 27 24 28 24 22 12 15 12 32 46 47 48 47 48 34 30 27 44 47 48 45 43 43 45 53 53 51 55 56 58 59 60 60 59 57 55 54 54 54 52 53 53
37 38 30 18 28 27 22 21 24 27 33 38 43 47 49 52 53 38 35 38 38 34 37 40 39 43 48 52 56 58 58 60 61 62 62 61 60 59 57 56 56 54 54 56
40 37 28 23 25 24 23 25 27 27 28 29 32 37 45 43 45 45 43 43 46 46 46 48 49 52 53 55 58 59 61 63 63 63 63 63 63 62 62 59 56 55 55 56
35 38 41 27 35 29 30 25 32 30 29 30 28 34 40 41 43 45 46 48 48 49 49 51 52 54 55 57 59 61 62 64 64 64 65 64 64 63 62 62 60 58 57 57
35 36 32 35 36 29 31 26 27 30 32 30 32 33 36 38 41 42 44 46 48 50 52 55 55 55 58 59 60 61 63 64 66 66 65 65 65 65 64 63 61 61 60 60
35 37 38 35 21 27 18 20 24 27 30 32 33 33 35 37 39 39 41 45 48 51 54 56 58 58 60 62 62 63 64 66 67 67 68 68 68 67 67 67 65 65 63 62
31 30 25 25 17 16 17 18 20 24 26 28 30 31 32 34 36 39 43 45 49 52 54 58 60 62 63 64 65 65 66 67 68 69 69 69 69 69 69 68 67 67 66 65
24 21 19 17 17 18 17 17 19 21 24 26 29 29 32 35 38 42 45 48 51 54 57 60 63 65 65 68 67 67 68 69 69 71 70 70 68 68 69 70 69 69 68 68
27 19 18 20 16 15 15 16 18 20 21 24 27 29 32 36 41 45 48 51 53 56 58 61 63 66 67 68 69 68 68 69 70 70 72 71 69 69 68 68 69 69 69 68
33 15 23 16 12 15 15 16 16 18 21 25 28 30 33 38 42 45 49 51 53 56 58 61 63 65 67 68 69 69 69 70 71 71 72 72 72 70 67 68 69 69 69 68
29 11 20 9 12 18 16 17 19 22 24 26 29 32 36 40 43 46 48 52 55 58 60 61 64 66 68 68 68 69 70 71 71 72 73 74 74 74 75 72 70 72 73 71
11 11 15 12 22 16 15 18 21 24 27 28 30 34 37 40 42 46 49 51 53 57 60 61 63 65 67 68 68 69 68 70 71 72 72 73 74 75 75 77 79 78 74 72
14 25 16 11 8 12 15 18 21 24 25 28 32 34 36 38 41 45 48 50 53 57 60 62 64 66 68 68 68 69 69 71 71 71 70 71 71 73 74 76 77 76 75 73
13 13 9 8 7 10 13 17 21 21 24 27 30 33 35 37 40 43 45 51 53 58 60 62 62 63 64 66 67 68 69 71 70 70 70 70 70 72 74 75 75 74 74 74
13 14 7 7 7 8 12 16 19 21 23 26 28 30 33 36 39 42 46 49 51 55 58 60 62 63 64 67 68 68 69 70 71 69 69 69 69 69 70 71 72 71 70 67
11 7 9 7 6 8 11 14 16 18 22 24 27 29 32 33 37 40 44 49 51 55 60 62 61 63 65 66 68 68 69 69 69 69 68 68 67 66 68 68 68 68 65 62
14 9 4 8 6 9 11 13 16 19 22 25 27 29 31 33 37 40 42 47 53 57 60 61 62 63 65 67 67 67 68 69 69 68 68 67 67 66 65 65 64 62 60 59
13 8 5 7 8 9 13 14 21 21 23 25 26 28 31 34 38 41 42 48 51 54 55 59 61 63 64 65 67 67 68 69 69 70 70 68 66 64 62 61 61 59 58 57
4 5 5 6 6 7 16 21 20 21 21 22 23 26 31 35 36 41 46 52 51 50 54 56 59 63 63 64 65 67 67 68 70 69 67 65 64 62 61 60 59 58 57 57
11 19 14 10 12 12 15 17 18 19 19 20 24 28 31 36 38 41 42 49 51 50 54 57 58 60 62 63 64 66 67 69 67 64 63 61 61 60 60 59 59 58 57 56
11 16 15 15 15 13 12 13 14 15 17 20 24 29 33 38 41 46 53 47 50 51 54 57 59 60 61 61 63 64 67 65 63 59 58 56 55 55 57 58 58 57 57 56
12 13 11 8 8 9 9 10 12 16 19 23 26 30 36 42 44 42 44 47 50 52 55 57 59 60 60 61 62 64 62 60 57 54 53 52 50 50 52 55 55 55 54 55
8 8 8 7 5 7 11 12 16 19 22 26 31 35 37 40 44 51 49 48 50 53 56 57 57 60 61 62 62 61 58 56 53 51 50 49 48 47 47 50 52 54 54 54
3 4 4 3 8 11 13 15 19 22 26 32 37 41 44 47 49 50 51 49 50 54 56 58 58 60 61 62 62 59 56 52 50 48 47 47 46 45 45 46 46 49 51 51
14 10 8 9 15 13 15 18 24 28 30 35 41 45 48 51 54 55 55 53 53 56 57 58 59 60 60 61 60 58 55 51 47 47 46 46 47 46 44 44 44 45 45 48
Wind_Direction
7 9 336 320 309 304 215 217 217 158 157 169 238 286 305 5 357 356 354 357 354 353 349 353 349 351 353 352 353 351 350 347 344 338 332 331 330 329 325 325 318 313 307 301
346 337 324 342 339 346 7 23 37 141 176 124 114 136 298 328 344 350 358 358 355 354 351 351 351 349 353 355 353 354 358 358 354 349 342 338 333 333 332 330 327 326 317 310
277 290 207 293 337 356 18 332 242 307 102 90 45 26 8 3 346 342 341 354 356 355 353 350 349 351 0 359 356 0 0 359 356 355 353 350 344 340 338 336 331 328 324 319
285 273 270 338 22 15 13 350 359 21 44 54 48 37 21 15 10 343 340 344 344 342 345 348 346 351 355 359 2 1 1 360 357 358 358 356 353 349 343 339 338 333 329 325
271 281 297 317 339 349 326 346 327 340 45 70 71 46 6 348 353 352 347 348 351 350 349 352 353 356 358 360 1 0 360 0 359 358 357 357 357 355 353 350 345 342 340 336
276 271 261 299 285 300 286 326 337 327 358 22 69 12 12 343 350 355 357 357 354 353 352 355 353 356 358 358 358 358 356 358 358 359 359 357 356 355 353 356 355 350 348 346
277 277 291 295 278 297 293 312 350 4 8 19 24 22 26 0 356 355 357 357 357 359 -0 359 357 357 0 359 357 355 357 359 1 360 358 356 356 356 352 352 353 352 351 349
285 277 275 302 310 308 338 7 12 15 23 31 34 26 11 360 355 350 351 353 356 0 1 360 359 358 360 357 354 356 357 357 357 358 359 359 360 358 357 354 353 351 345 345
304 298 309 303 331 334 349 13 8 22 20 22 22 11 359 355 350 349 352 354 357 1 0 360 358 359 359 354 354 355 356 356 356 358 358 357 354 352 351 350 349 347 345 342
316 317 318 322 324 331 349 7 20 22 21 18 20 8 4 359 356 358 360 358 360 2 2 2 4 4 4 1 0 1 359 358 357 355 354 354 354 352 352 349 346 344 341 339
303 307 315 310 325 349 359 12 16 5 3 10 15 7 6 7 10 17 18 15 14 12 10 7 5 4 3 0 359 358 358 357 355 353 351 350 350 349 348 349 346 342 340 337
290 317 309 309 318 310 335 336 333 342 347 353 4 10 13 16 21 20 16 15 14 11 9 6 3 1 358 356 355 355 354 352 351 350 349 348 346 344 348 346 344 344 340 338
299 339 317 335 319 301 313 323 330 344 351 357 2 8 14 17 18 17 14 10 6 4 2 360 358 357 356 356 357 356 355 354 353 351 349 347 346 344 341 341 341 339 337 333
327 343 322 303 282 304 342 345 349 360 3 1 5 8 15 19 20 16 11 7 4 1 359 359 360 359 358 358 358 357 355 353 352 351 348 346 345 343 343 340 336 334 335 332
314 303 311 318 349 346 354 360 348 351 6 6 14 20 26 25 20 14 10 11 10 6 2 1 359 357 357 357 356 355 353 351 350 349 347 346 345 344 342 340 338 335 333 331
31 337 335 321 328 340 12 6 350 358 24 35 35 35 30 23 21 20 18 13 10 7 6 4 3 2 1 359 357 355 352 350 350 348 347 346 345 343 342 340 338 336 334 331
85 77 9 333 337 341 349 21 29 46 51 49 39 29 27 26 25 21 18 17 15 11 9 6 3 1 0 359 357 355 353 351 350 348 347 346 344 343 341 340 336 334 333 334
313 347 79 36 50 22 12 13 15 40 47 33 26 28 29 28 24 21 17 12 11 9 5 3 2 -0 359 358 357 356 354 352 351 350 348 347 345 344 340 338 337 335 333 334
293 317 23 330 12 29 31 30 46 46 43 35 32 33 34 29 22 18 15 11 6 4 3 3 2 0 359 358 358 357 355 353 352 351 349 347 343 342 340 339 338 337 336 334
291 314 349 332 331 49 71 53 72 56 45 47 43 36 29 22 16 13 12 6 4 3 2 1 1 0 359 359 358 357 355 353 352 349 347 346 345 343 342 341 339 338 336 334
51 62 73 67 16 354 83 92 78 71 62 57 45 32 22 16 12 9 4 360 2 2 1 0 360 359 359 358 358 356 355 353 351 350 349 348 346 345 343 341 339 337 335 333
96 113 108 96 91 81 76 74 65 65 57 44 29 21 14 8 5 2 0 358 359 360 359 358 357 357 356 356 355 355 354 352 351 351 350 349 348 347 344 340 337 335 333 331
82 106 107 109 106 90 66 58 55 51 39 26 15 9 4 0 358 355 352 357 356 356 355 354 354 354 354 353 353 352 351 352 352 352 353 352 352 350 346 342 336 333 331 330
87 99 96 66 56 58 65 45 30 17 12 6 2 359 356 352 350 350 349 350 350 352 351 351 352 351 351 351 350 349 350 351 352 353 353 354 354 353 349 345 340 335 332 330
84 86 85 85 56 11 3 8 360 356 355 353 352 351 349 348 345 346 346 346 346 347 347 348 349 349 350 349 348 348 348 350 351 351 352 352 353 352 350 346 341 336 332 330
76 87 81 66 350 349 350 352 347 346 346 345 345 346 347 347 346 345 344 343 343 344 345 346 346 346 347 347 347 347 347 347 348 349 349 350 350 350 350 347 344 339 334 330
311 321 328 331 333 337 340 341 340 340 340 340 341 344 345 346 346 346 346 345 344 343 343 343 344 344 344 346 347 348 348 347 345 346 346 346 347 346 346 346 344 342 339 335